Weather History for KSEG - November, 2013

Change the Weather History Date:

Thursday, November 7, 2013

  Actual Average (KIPT) Record (KIPT)
Temperature  
Mean Temperature 50 °F 45 °F  
Max Temperature 59 °F 54 °F 77 °F (1938)
Min Temperature 39 °F 35 °F 20 °F (1931)
Degree Days  
Heating Degree Days 14 20  
Month to date heating degree days 136  
Since 1 July heating degree days 679  
Cooling Degree Days 0 0  
Month to date cooling degree days 0  
Year to date cooling degree days 702  
Moisture  
Dew Point 45 °F    
Average Humidity 78    
Maximum Humidity 97    
Minimum Humidity 49    
Precipitation  
Precipitation 0.45 in 0.11 in 1.92 in (1941)
Month to date precipitation 0.81  
Year to date precipitation 35.42  
Snow  
Snow 0.00 in - - ()
Month to date snowfall  
Since 1 July snowfall  
Since 1 September snowfall  
Snow Depth -    
Sea Level Pressure  
Sea Level Pressure 29.93 in    
Wind  
Wind Speed 5 mph (WNW)    
Max Wind Speed 14 mph    
Max Gust Speed 25 mph    
Visibility 8 miles    
Events Rain    
T = Trace of Precipitation, MM = Missing Value Source: NWS Daily Summary

Daily Weather History Graph

Daily Weather History Graph

Search for Another Location

Airport or City:

Trip Planner

Search our weather history database for the weather conditions in past years. The results will help you decide how hot, cold, wet, or windy it might be!

Date:

Astronomy

Nov. 07, 2013 Rise Set
Actual Time 6:45 AM EST 4:56 PM EST
Civil Twilight 6:16 AM EST 5:25 PM EST
Nautical Twilight 5:43 AM EST 5:58 PM EST
Astronomical Twilight 5:11 AM EST 6:30 PM EST
Moon 10:52 AM EST (11/7) 9:05 PM EST (11/7)
Length of Visible Light 11h 08m
Length of Day
10h 11m
Waxing Crescent, 22% of the Moon is Illuminated
Nov 7
Waxing Crescent
Nov 10
First Quarter
Nov 17
Full
Nov 25
Last Quarter
Dec 2
New

Hourly Weather History & Observations

Time (EST) Temp. Windchill Dew Point Humidity Pressure Visibility Wind Dir Wind Speed Gust Speed Precip Events Conditions
12:53 AM 59.0 °F - 50.0 °F 72% 29.95 in 10.0 mi South 8.1 mph - N/A   Overcast
1:53 AM 59.0 °F - 50.0 °F 72% 29.93 in 10.0 mi South 5.8 mph - N/A   Overcast
2:53 AM 59.0 °F - 50.0 °F 72% 29.90 in 10.0 mi Variable 5.8 mph - N/A   Overcast
3:53 AM 57.9 °F - 50.0 °F 75% 29.87 in 10.0 mi Variable 3.5 mph - N/A   Overcast
4:53 AM 57.9 °F - 50.0 °F 75% 29.86 in 10.0 mi Variable 3.5 mph - 0.00 in Rain Light Rain
5:53 AM 55.0 °F - 53.1 °F 93% 29.87 in 4.0 mi Calm Calm - 0.09 in Rain Rain
6:46 AM 54.0 °F - 53.1 °F 97% 29.87 in 3.0 mi Calm Calm - 0.10 in Rain Rain
6:53 AM 54.0 °F - 53.1 °F 97% 29.87 in 3.0 mi Variable 3.5 mph - 0.11 in Rain Rain
7:09 AM 55.0 °F - 53.1 °F 93% 29.88 in 5.0 mi Calm Calm - 0.03 in Rain Light Rain
7:26 AM 55.0 °F - 53.1 °F 93% 29.88 in 4.0 mi Calm Calm - 0.05 in Rain Rain
7:53 AM 54.0 °F - 53.1 °F 97% 29.88 in 3.0 mi Calm Calm - 0.08 in Rain Light Rain
8:04 AM 54.0 °F - 53.1 °F 97% 29.89 in 1.8 mi Calm Calm - 0.02 in Rain Rain
8:25 AM 55.0 °F - 53.1 °F 93% 29.87 in 3.0 mi Calm Calm - 0.06 in Rain Light Rain
8:53 AM 55.0 °F - 53.1 °F 93% 29.88 in 5.0 mi Calm Calm - 0.07 in Rain Light Rain
9:53 AM 55.0 °F - 53.1 °F 93% 29.89 in 10.0 mi Variable 3.5 mph - 0.04 in Rain Light Rain
10:53 AM 54.0 °F - 50.0 °F 86% 29.89 in 6.0 mi WNW 4.6 mph - 0.03 in Rain Light Rain
11:22 AM 53.1 °F - 50.0 °F 89% 29.91 in 9.0 mi WNW 5.8 mph - 0.01 in Rain Light Rain
11:53 AM 52.0 °F - 46.9 °F 83% 29.90 in 9.0 mi WNW 9.2 mph - 0.03 in Rain Light Rain
12:12 PM 51.1 °F - 46.0 °F 83% 29.90 in 10.0 mi WNW 6.9 mph - 0.00 in Rain Light Rain
12:53 PM 51.1 °F - 45.0 °F 80% 29.91 in 10.0 mi WNW 9.2 mph - 0.00 in   Overcast
1:53 PM 51.1 °F - 42.1 °F 71% 29.92 in 10.0 mi NW 13.8 mph - N/A   Overcast
2:53 PM 51.1 °F - 39.9 °F 66% 29.93 in 10.0 mi WNW 9.2 mph 18.4 mph N/A   Overcast
3:53 PM 50.0 °F - 36.0 °F 59% 29.94 in 10.0 mi WNW 11.5 mph - 0.00 in   Scattered Clouds
4:53 PM 46.0 °F 41.4 °F 36.0 °F 68% 29.97 in 10.0 mi WNW 9.2 mph 25.3 mph 0.00 in Rain Light Rain
5:53 PM 46.0 °F 41.4 °F 33.1 °F 61% 29.98 in 10.0 mi NW 9.2 mph - 0.00 in   Partly Cloudy
6:53 PM 46.0 °F 43.1 °F 34.0 °F 63% 29.99 in 10.0 mi NW 5.8 mph - N/A   Overcast
7:53 PM 46.0 °F 42.5 °F 34.0 °F 63% 30.02 in 10.0 mi Variable 6.9 mph - 0.00 in   Overcast
8:53 PM 43.0 °F 36.4 °F 33.1 °F 68% 30.04 in 10.0 mi NW 12.7 mph 25.3 mph N/A   Overcast
9:53 PM 42.1 °F 36.6 °F 24.1 °F 49% 30.04 in 10.0 mi WNW 9.2 mph 20.7 mph 0.00 in   Overcast
10:53 PM 42.1 °F 36.1 °F 25.0 °F 51% 30.04 in 10.0 mi WNW 10.4 mph - N/A   Overcast
11:53 PM 39.9 °F 35.8 °F 24.1 °F 53% 30.04 in 10.0 mi West 5.8 mph - N/A   Scattered Clouds